TimeCST,TemperatureF,Dew PointF,Humidity,Sea Level PressureIn,VisibilityMPH,Wind Direction,Wind SpeedMPH,Gust SpeedMPH,PrecipitationIn,Events,Conditions,WindDirDegrees,DateUTC
12:53 AM,30.9,21.9,69,30.45,10.0,North,3.5,-,N/A,,Clear,350,2012-12-30 06:53:00
1:53 AM,28.0,21.9,78,30.46,10.0,North,3.5,-,N/A,,Clear,10,2012-12-30 07:53:00
2:53 AM,28.0,21.9,78,30.47,10.0,Calm,Calm,-,N/A,,Clear,0,2012-12-30 08:53:00
3:53 AM,28.0,21.9,78,30.48,10.0,Calm,Calm,-,N/A,,Clear,0,2012-12-30 09:53:00
4:53 AM,28.0,21.9,78,30.47,10.0,Calm,Calm,-,N/A,,Clear,0,2012-12-30 10:53:00
5:53 AM,28.9,21.9,75,30.47,10.0,Calm,Calm,-,N/A,,Clear,0,2012-12-30 11:53:00
6:53 AM,30.0,21.0,69,30.49,10.0,ENE,3.5,-,N/A,,Clear,70,2012-12-30 12:53:00
7:53 AM,30.9,24.1,76,30.50,10.0,East,6.9,-,N/A,,Clear,80,2012-12-30 13:53:00
8:53 AM,35.1,26.1,70,30.50,10.0,East,8.1,-,N/A,,Clear,80,2012-12-30 14:53:00
9:53 AM,39.9,27.0,60,30.50,10.0,ESE,10.4,-,N/A,,Clear,110,2012-12-30 15:53:00
10:53 AM,43.0,26.1,51,30.50,10.0,ESE,5.8,-,N/A,,Clear,120,2012-12-30 16:53:00
11:53 AM,48.0,26.1,42,30.46,10.0,ESE,5.8,-,N/A,,Clear,120,2012-12-30 17:53:00
1:53 PM,48.9,23.0,36,30.39,10.0,SE,6.9,-,N/A,,Clear,140,2012-12-30 19:53:00
2:53 PM,50.0,24.1,36,30.39,10.0,South,4.6,-,N/A,,Clear,190,2012-12-30 20:53:00
3:53 PM,48.0,23.0,37,30.38,10.0,SE,8.1,-,N/A,,Clear,140,2012-12-30 21:53:00
4:53 PM,46.9,26.1,44,30.38,10.0,SSE,4.6,-,N/A,,Clear,150,2012-12-30 22:53:00
5:53 PM,44.1,28.0,53,30.34,10.0,ESE,5.8,-,N/A,,Clear,110,2012-12-30 23:53:00
6:53 PM,44.1,27.0,51,30.34,10.0,Calm,Calm,-,N/A,,Clear,0,2012-12-31 00:53:00
7:53 PM,41.0,28.9,62,30.33,10.0,ESE,3.5,-,N/A,,Clear,110,2012-12-31 01:53:00
8:53 PM,42.1,28.0,58,30.32,10.0,ESE,5.8,-,N/A,,Clear,110,2012-12-31 02:53:00
9:53 PM,43.0,28.0,56,30.30,10.0,ESE,8.1,-,N/A,,Clear,120,2012-12-31 03:53:00
10:53 PM,43.0,28.9,58,30.30,10.0,ESE,4.6,-,N/A,,Overcast,120,2012-12-31 04:53:00
11:53 PM,43.0,30.0,60,30.29,10.0,SE,6.9,-,N/A,,Overcast,130,2012-12-31 05:53:00